Weather History for Bluefield, WV

Change the Weather History Date:

Sunday, February 3, 2013

  Actual Average Record
Temperature  
Mean Temperature 27 °F 35 °F  
Max Temperature 30 °F 43 °F 67 °F (1989)
Min Temperature 23 °F 27 °F 0 °F (1965)
Degree Days  
Heating Degree Days 38 30  
Month to date heating degree days 126 90  
Since 1 July heating degree days 2702 2810  
Cooling Degree Days 0 0  
Month to date cooling degree days 0 0  
Year to date cooling degree days 1 0  
Moisture  
Dew Point 22 °F    
Average Humidity 79    
Maximum Humidity 85    
Minimum Humidity 72    
Precipitation  
Precipitation 0.13 in 0.10 in 0.86 in (2014)
Month to date precipitation 0.41 0.29  
Year to date precipitation 6.41 3.19  
Snow  
Snow 1.50 in - - ()
Month to date snowfall 6.0  
Since 1 July snowfall 34.5  
Snow Depth 6.00 in    
Sea Level Pressure  
Sea Level Pressure 29.89 in    
Wind  
Wind Speed 14 mph (WNW)    
Max Wind Speed 24 mph    
Max Gust Speed 33 mph    
Visibility 4 miles    
Events Snow    
T = Trace of Precipitation, MM = Missing Value Source: NWS Daily Summary

Daily Weather History Graph

Daily Weather History Graph

Search for Another Location

Airport:

Trip Planner

Search our weather history database for the weather conditions in past years. The results will help you decide how hot, cold, wet, or windy it might be!

Date:

Astronomy

Feb. 03, 2013 Rise Set
Actual Time 7:25 AM EST 5:51 PM EST
Civil Twilight 6:58 AM EST 6:19 PM EST
Nautical Twilight 6:27 AM EST 6:50 PM EST
Astronomical Twilight 5:57 AM EST 7:20 PM EST
Moon 12:51 AM EST (2/3) 11:28 AM EST (2/3)
Length of Visible Light 11h 20m
Length of Day
10h 25m
Waning Gibbous, 49% of the Moon is Illuminated
Feb 3
Waning Gibbous
Feb 10
New
Feb 17
First Quarter
Feb 25
Full
Mar 4
Last Quarter

Hourly Weather History & Observations

Time (EST) Temp. Windchill Dew Point Humidity Pressure Visibility Wind Dir Wind Speed Gust Speed Precip Events Conditions
12:24 AM 28.4 °F 18.0 °F 24.8 °F 86% 29.91 in 2.5 mi West 12.7 mph - 0.00 in Snow Light Snow
12:36 AM 28.4 °F 19.1 °F 24.8 °F 86% 29.90 in 3.0 mi West 10.4 mph 21.9 mph 0.00 in Snow Light Snow
12:52 AM 28.9 °F 19.2 °F 24.1 °F 82% 29.96 in 3.0 mi West 11.5 mph 19.6 mph 0.00 in Snow Light Snow
1:52 AM 28.9 °F 18.6 °F 24.1 °F 82% 29.94 in 6.0 mi West 12.7 mph - 0.00 in Snow Light Snow
2:10 AM 28.4 °F 17.0 °F 24.8 °F 86% 29.86 in 2.0 mi West 15.0 mph 21.9 mph 0.00 in Snow Light Snow
2:25 AM 28.4 °F 17.5 °F 24.8 °F 86% 29.86 in 1.5 mi West 13.8 mph 19.6 mph 0.00 in Snow Light Snow
2:43 AM 28.4 °F 18.0 °F 24.8 °F 86% 29.86 in 1.0 mi West 12.7 mph 20.7 mph 0.00 in Snow Light Snow
2:52 AM 28.0 °F 17.0 °F 24.1 °F 85% 29.92 in 1.0 mi WNW 13.8 mph 20.7 mph 0.00 in Snow Light Snow
3:16 AM 28.4 °F 19.1 °F 23.0 °F 80% 29.86 in 1.8 mi WNW 10.4 mph 20.7 mph 0.01 in Snow Light Snow
3:26 AM 28.4 °F 18.5 °F 23.0 °F 80% 29.85 in 2.5 mi WNW 11.5 mph 18.4 mph 0.01 in Snow Light Snow
3:30 AM 28.4 °F 17.0 °F 23.0 °F 80% 29.85 in 3.0 mi WNW 15.0 mph 20.7 mph 0.01 in Snow Light Snow
4:52 AM 26.1 °F 13.1 °F 19.9 °F 78% 29.90 in 8.0 mi WNW 17.3 mph 29.9 mph 0.00 in   Overcast
5:45 AM 26.6 °F 15.2 °F 19.4 °F 74% 29.84 in 10.0 mi West 13.8 mph 19.6 mph N/A   Overcast
5:52 AM 26.1 °F 15.0 °F 19.0 °F 75% 29.91 in 10.0 mi West 12.7 mph 20.7 mph N/A   Overcast
6:25 AM 26.6 °F 17.5 °F 19.4 °F 74% 29.84 in 10.0 mi West 9.2 mph 18.4 mph N/A   Overcast
6:43 AM 26.6 °F 16.8 °F 19.4 °F 74% 29.83 in 10.0 mi West 10.4 mph 20.7 mph N/A   Overcast
6:52 AM 26.1 °F 16.2 °F 19.0 °F 75% 29.89 in 10.0 mi West 10.4 mph - N/A   Overcast
7:28 AM 26.6 °F 15.7 °F 19.4 °F 74% 29.83 in 10.0 mi West 12.7 mph 19.6 mph N/A   Overcast
7:52 AM 27.0 °F 16.7 °F 19.9 °F 75% 29.89 in 10.0 mi West 11.5 mph 21.9 mph N/A   Overcast
8:33 AM 26.6 °F 16.2 °F 21.2 °F 80% 29.83 in 10.0 mi West 11.5 mph 18.4 mph N/A   Overcast
8:47 AM 26.6 °F 17.5 °F 21.2 °F 80% 29.83 in 10.0 mi West 9.2 mph - N/A   Overcast
8:52 AM 27.0 °F 16.7 °F 21.0 °F 78% 29.90 in 10.0 mi West 11.5 mph - N/A   Overcast
9:52 AM 28.9 °F 18.6 °F 21.0 °F 72% 29.88 in 9.0 mi West 12.7 mph 23.0 mph 0.00 in Snow Light Snow
10:22 AM 28.4 °F 16.6 °F 21.2 °F 74% 29.82 in 10.0 mi West 16.1 mph 20.7 mph 0.00 in   Overcast
10:52 AM 28.9 °F 17.7 °F 21.9 °F 75% 29.88 in 9.0 mi West 15.0 mph 23.0 mph 0.00 in   Overcast
11:16 AM 28.4 °F 19.1 °F 23.0 °F 80% 29.82 in 2.5 mi West 10.4 mph 19.6 mph 0.00 in Snow Light Snow
11:23 AM 30.2 °F 21.3 °F 23.0 °F 75% 29.82 in 5.0 mi West 10.4 mph - 0.00 in Snow Light Snow
11:52 AM 28.9 °F 19.8 °F 23.0 °F 78% 29.87 in 8.0 mi West 10.4 mph 18.4 mph 0.00 in Snow Light Snow
12:15 PM 28.4 °F 19.7 °F 23.0 °F 80% 29.81 in 2.0 mi West 9.2 mph 17.3 mph 0.00 in Snow Light Snow
12:26 PM 28.4 °F 18.0 °F 24.8 °F 86% 29.81 in 1.0 mi West 12.7 mph - 0.00 in Snow Light Snow
12:37 PM 28.4 °F 19.1 °F 24.8 °F 86% 29.81 in 2.0 mi West 10.4 mph - 0.00 in Snow Light Snow
12:50 PM 30.2 °F 21.9 °F 24.8 °F 80% 29.80 in 1.8 mi West 9.2 mph - 0.00 in Snow Light Snow
12:52 PM 30.0 °F 22.4 °F 24.1 °F 79% 29.86 in 1.8 mi West 8.1 mph - 0.00 in Snow Light Snow
1:00 PM 30.2 °F 22.6 °F 24.8 °F 80% 29.80 in 3.0 mi West 8.1 mph - 0.00 in Snow Light Snow
1:07 PM 30.2 °F 21.3 °F 24.8 °F 80% 29.80 in 4.0 mi WNW 10.4 mph 20.7 mph 0.00 in Snow Light Snow
1:52 PM 30.0 °F 19.5 °F 23.0 °F 75% 29.85 in 4.0 mi WNW 13.8 mph 23.0 mph 0.00 in Snow Light Snow
2:52 PM 28.9 °F 18.2 °F 21.9 °F 75% 29.88 in 2.5 mi WNW 13.8 mph 26.5 mph 0.00 in Snow Light Snow
2:57 PM 28.4 °F 18.5 °F 23.0 °F 80% 29.83 in 1.0 mi WNW 11.5 mph 21.9 mph 0.01 in Snow Light Snow
3:05 PM 28.4 °F 16.6 °F 23.0 °F 80% 29.83 in 0.8 mi WNW 16.1 mph 33.4 mph 0.01 in Snow Light Snow
3:07 PM 28.4 °F 18.0 °F 23.0 °F 80% 29.83 in 1.0 mi West 12.7 mph 33.4 mph 0.01 in Snow Light Snow
3:10 PM 28.4 °F 16.6 °F 23.0 °F 80% 29.83 in 1.5 mi WNW 16.1 mph 33.4 mph 0.01 in Snow Light Snow
3:26 PM 28.4 °F 18.0 °F 21.2 °F 74% 29.85 in 2.0 mi WNW 12.7 mph 20.7 mph 0.01 in Snow Light Snow
3:34 PM 28.4 °F 16.6 °F 21.2 °F 74% 29.85 in 1.5 mi WNW 16.1 mph 23.0 mph 0.01 in Snow Light Snow
3:52 PM 28.0 °F 15.7 °F 21.9 °F 78% 29.91 in 1.2 mi WNW 17.3 mph 28.8 mph 0.01 in Snow Light Snow
4:21 PM 28.4 °F 18.5 °F 21.2 °F 74% 29.86 in 2.0 mi WNW 11.5 mph 24.2 mph 0.00 in Snow Light Snow
4:28 PM 28.4 °F 16.6 °F 21.2 °F 74% 29.86 in 1.8 mi WNW 16.1 mph 24.2 mph 0.00 in Snow Light Snow
4:52 PM 27.0 °F 15.2 °F 21.0 °F 78% 29.94 in 1.2 mi West 15.0 mph 21.9 mph 0.00 in Snow Light Snow
5:20 PM 26.6 °F 15.7 °F 21.2 °F 80% 29.87 in 1.5 mi WNW 12.7 mph - 0.00 in Snow Light Snow
5:29 PM 26.6 °F 13.4 °F 21.2 °F 80% 29.87 in 2.0 mi West 18.4 mph 26.5 mph 0.00 in Snow Light Snow
5:36 PM 26.6 °F 13.4 °F 21.2 °F 80% 29.87 in 1.5 mi West 18.4 mph 28.8 mph 0.00 in Snow Light Snow
5:52 PM 27.0 °F 14.3 °F 21.9 °F 81% 29.95 in 1.0 mi West 17.3 mph 26.5 mph 0.00 in Snow Light Snow
6:06 PM 26.6 °F 15.2 °F 21.2 °F 80% 29.89 in 1.5 mi WNW 13.8 mph 24.2 mph 0.00 in Snow Light Snow
6:23 PM 26.6 °F 15.2 °F 21.2 °F 80% 29.89 in 2.5 mi WNW 13.8 mph 26.5 mph 0.00 in Snow Light Snow
6:52 PM 25.0 °F 11.7 °F 19.9 °F 81% 29.99 in 2.0 mi NW 17.3 mph 28.8 mph 0.00 in Snow Light Snow
7:05 PM 24.8 °F 11.5 °F 19.4 °F 80% 29.92 in 2.5 mi WNW 17.3 mph 31.1 mph 0.00 in Snow Light Snow
7:14 PM 24.8 °F 12.9 °F 19.4 °F 80% 29.92 in 2.5 mi NW 13.8 mph 23.0 mph 0.00 in Snow Light Snow
7:25 PM 24.8 °F 14.0 °F 19.4 °F 80% 29.93 in 3.0 mi WNW 11.5 mph 21.9 mph 0.00 in Snow Light Snow
7:52 PM 25.0 °F 12.2 °F 19.0 °F 78% 30.02 in 5.0 mi WNW 16.1 mph 25.3 mph 0.00 in Snow Light Snow
8:52 PM 25.0 °F 11.7 °F 19.0 °F 78% 30.02 in 6.0 mi WNW 17.3 mph 24.2 mph 0.00 in Snow Light Snow
9:23 PM 24.8 °F 11.9 °F 19.4 °F 80% 29.96 in 5.0 mi WNW 16.1 mph 26.5 mph 0.00 in Snow Light Snow
9:52 PM 24.1 °F 11.5 °F 19.0 °F 81% 30.04 in 5.0 mi WNW 15.0 mph 26.5 mph 0.00 in Snow Light Snow
10:06 PM 24.8 °F 11.1 °F 19.4 °F 80% 29.97 in 5.0 mi WNW 18.4 mph 23.0 mph 0.00 in Snow Light Snow
10:29 PM 24.8 °F 12.4 °F 19.4 °F 80% 29.98 in 4.0 mi WNW 15.0 mph 29.9 mph 0.00 in Snow Light Snow
10:52 PM 24.1 °F 10.6 °F 18.0 °F 77% 30.04 in 5.0 mi WNW 17.3 mph 25.3 mph 0.00 in Snow Light Snow
11:22 PM 24.8 °F 11.1 °F 15.8 °F 69% 29.98 in 5.0 mi WNW 18.4 mph 32.2 mph 0.00 in Snow Light Snow
11:52 PM 23.0 °F 9.6 °F 16.0 °F 74% 30.06 in 8.0 mi WNW 16.1 mph 29.9 mph 0.00 in Snow Light Snow